User: anonymous   Login
Location: Bouchavesnes-Bergen
(49.9859°N, 2.9203°E)
Time: 19:52:50
(UTC+00:00)
Language:

IDEFIX/ARIANE 42P - Orbit

View from above orbital plane
View from above orbital plane
View from above satellite
View from above satellite

Ground track
Ground track

The orbit data is extracted from the following two-line orbital elements,

1 27422U 02021B   21216.48038892 -.00000003  00000-0  15418-4 0  9993
2 27422  98.4049 167.7778 0013480  90.8431 269.4296 14.29326325  4174
Epoch (UTC): 04 August 2021 11:31:45
Eccentricity: 0.0013480
inclination: 98.4049°
perigee height: 784 km
apogee height: 803 km
right ascension of ascending node: 167.7778°
argument of perigee: 90.8431°
revolutions per day: 14.29326325
mean anomaly at epoch: 269.4296°
orbit number at epoch: 417

The dashed part of the orbit path shows where the satellite is in the earth's shadow,  

DLR